Flag for Netherlands Weather past 2 weeks in Tilburg, Netherlands

Now
55 °F

Fog.


Feels Like: 55 °F
Forecast: 56 / 74 °F
Wind: 5 mph from Northeast

Location: Gilze-Rijen

Current Time: Sep 3, 2014 at 4:20:28 AM

Latest Report: Sep 3, 2014 at 3:55 AM


Visibility: 1 mi

Pressure: 30.21 "Hg

Humidity: 100%

Dew point: 55 °F

Location of TilburgLocation

Historic Weather in Tilburg — Graph

°F

Tilburg temperature yesterday

Maximum temperature yesterday: 72 °F (at 1:55 PM)
Minimum temperature yesterday: 57 °F (at 12:25 AM)
Average temperature yesterday: 64 °F

Past Weeks' High & Low Weather Summary

 TemperatureHumidityPressure
High72 °F (Aug 28, 4:25 PM)100% (Aug 19, 2:25 AM)30.24 "Hg (Aug 19, 2:25 AM)
Low43 °F (Aug 25, 5:55 AM)46% (Aug 27, 3:55 PM)29.59 "Hg (Aug 26, 3:55 AM)
Average58 °F84%29.96 "Hg
* Reported Aug 19 2:25 AM — Sep 3 2:55 AM, Tilburg, Weather by CustomWeather, © 2014

Note: Actual official high and low records may vary slightly from our data, if they occured in-between our weather recording intervals... More about our weather records

Advertising

Tilburg weather history for previous 24 hours

 ConditionsComfort  
Time TempWeatherWind HumidityBarometerVisibility
2:55 AM
Sep 3
57 °FFog.2 mph100%30.21 "Hg2 mi
2:25 AM57 °FFog.2 mph100%30.21 "Hg2 mi
1:55 AM57 °FFog.3 mph100%30.21 "Hg2 mi
1:25 AM57 °FFog.3 mph100%30.21 "Hg3 mi
12:59 AM57 °FFog.5 mph100%30.21 "Hg3 mi
12:25 AM59 °FFog.5 mph94%30.21 "Hg4 mi
11:55 PM
Sep 2
59 °FFog.6 mph94%30.21 "Hg6 mi
11:25 PM59 °FFog.6 mph100%30.24 "Hg6 mi
10:55 PM61 °FPassing clouds.6 mph94%30.24 "HgN/A
10:25 PM61 °FCool.5 mph88%30.21 "HgN/A
9:55 PM63 °FMild.5 mph88%30.21 "HgN/A
9:25 PM64 °FOvercast.6 mph83%30.21 "HgN/A
8:55 PM64 °FMore clouds than sun.6 mph83%30.21 "HgN/A
8:25 PM66 °FOvercast.7 mph78%30.21 "HgN/A
7:55 PM66 °FOvercast.6 mph78%30.18 "HgN/A
7:25 PM66 °FOvercast.7 mph78%30.21 "HgN/A
6:55 PM68 °FMostly cloudy.6 mph69%30.18 "HgN/A
6:25 PM68 °FOvercast.7 mph64%30.18 "HgN/A
5:55 PM68 °FMostly cloudy.8 mph60%30.18 "HgN/A
5:25 PM70 °FOvercast.8 mph57%30.18 "HgN/A
4:55 PM70 °FMostly cloudy.7 mph60%30.18 "HgN/A
4:25 PM70 °FPartly sunny.12 mph57%30.18 "HgN/A
3:55 PM72 °FScattered clouds.10 mph53%30.18 "HgN/A
3:25 PM72 °FPassing clouds.8 mph57%30.18 "HgN/A
2:55 PM72 °FPassing clouds.9 mph53%30.18 "HgN/A
2:25 PM72 °FScattered clouds.8 mph57%30.18 "HgN/A
1:55 PM72 °FScattered clouds.8 mph57%30.18 "HgN/A
1:25 PM70 °FScattered clouds.7 mph57%30.18 "HgN/A
12:55 PM70 °FScattered clouds.3 mph57%30.18 "HgN/A
12:25 PM68 °FPassing clouds.7 mph60%30.18 "HgN/A
11:55 AM70 °FScattered clouds.7 mph57%30.18 "HgN/A
11:25 AM68 °FMild.6 mph60%30.18 "HgN/A
10:55 AM68 °FMild.6 mph56%30.18 "HgN/A
10:25 AM66 °FPassing clouds.6 mph68%30.18 "HgN/A
9:55 AM63 °FPartly sunny.5 mph77%30.18 "HgN/A
9:25 AM61 °FMostly cloudy.5 mph88%30.18 "HgN/A
8:55 AM61 °FOvercast.5 mph83%30.18 "HgN/A
8:25 AM59 °FOvercast.3 mph94%30.15 "HgN/A
7:55 AM59 °FOvercast.3 mph94%30.15 "HgN/A
7:25 AM59 °FMostly cloudy.3 mph88%30.15 "HgN/A
6:55 AM59 °FOvercast.5 mph88%30.15 "HgN/A
6:25 AM59 °FOvercast.3 mph88%30.15 "HgN/A
5:55 AM59 °FMostly cloudy.3 mph94%30.15 "HgN/A
5:25 AM59 °FOvercast.5 mph88%30.15 "HgN/A
4:55 AM57 °FMostly cloudy.2 mph94%30.12 "HgN/A
4:25 AM57 °FPassing clouds.5 mph94%30.12 "HgN/A
Weather by CustomWeather, © 2014

See weather overviewHow to use our weather pages